Weather History for Springfield, MO

Change the Weather History Date:

Sunday, April 28, 2013

  Actual Average Record
Temperature  
Mean Temperature 60 °F 60 °F  
Max Temperature 71 °F 71 °F 87 °F (1899)
Min Temperature 49 °F 49 °F 31 °F (1973)
Degree Days  
Heating Degree Days 5 6  
Month to date heating degree days 337 288  
Since 1 July heating degree days 4352 4462  
Cooling Degree Days 0 1  
Month to date cooling degree days 9 21  
Year to date cooling degree days 9 24  
Growing Degree Days 10 (Base 50)    
Moisture  
Dew Point 48 °F    
Average Humidity 67    
Maximum Humidity 93    
Minimum Humidity 40    
Precipitation  
Precipitation 0.00 in 0.16 in 2.19 in (1996)
Month to date precipitation 5.64 3.97  
Year to date precipitation 15.75 12.58  
Snow  
Snow 0.00 in - - ()
Month to date snowfall T  
Since 1 July snowfall 11.3  
Snow Depth 0.00 in    
Sea Level Pressure  
Sea Level Pressure 29.97 in    
Wind  
Wind Speed 7 mph (West)    
Max Wind Speed 14 mph    
Max Gust Speed 18 mph    
Visibility 10 miles    
Events      
T = Trace of Precipitation, MM = Missing Value Source: NWS Daily Summary

Daily Weather History Graph

Daily Weather History Graph

Search for Another Location

Airport:

Trip Planner

Search our weather history database for the weather conditions in past years. The results will help you decide how hot, cold, wet, or windy it might be!

Date:

Astronomy

Apr. 28, 2013 Rise Set
Actual Time 6:21 AM CDT 8:00 PM CDT
Civil Twilight 5:54 AM CDT 8:28 PM CDT
Nautical Twilight 5:20 AM CDT 9:02 PM CDT
Astronomical Twilight 4:45 AM CDT 9:37 PM CDT
Moon 11:29 PM CDT (4/28) 8:41 AM CDT (4/28)
Length of Visible Light 14h 34m
Length of Day
13h 38m
Waning Gibbous, 88% of the Moon is Illuminated
Apr 28
Waning Gibbous
May 2
Last Quarter
May 9
New
May 17
First Quarter
May 24
Full

Hourly Weather History & Observations

Time (CDT) Temp. Dew Point Humidity Pressure Visibility Wind Dir Wind Speed Gust Speed Precip Events Conditions
12:10 AM 50.0 °F 48.9 °F 96% 30.00 in 10.0 mi NNW 5.8 mph - N/A   Overcast
12:23 AM 50.0 °F 48.9 °F 96% 30.01 in 10.0 mi NNW 4.6 mph - N/A   Overcast
12:52 AM 50.0 °F 48.9 °F 96% 30.01 in 10.0 mi NNW 6.9 mph - N/A   Overcast
1:52 AM 50.0 °F 48.0 °F 93% 29.99 in 10.0 mi WNW 3.5 mph - N/A   Overcast
2:28 AM 50.0 °F 48.0 °F 93% 29.99 in 10.0 mi NW 6.9 mph - N/A   Overcast
2:39 AM 50.0 °F 46.9 °F 89% 29.99 in 10.0 mi NW 9.2 mph - N/A   Overcast
2:52 AM 50.0 °F 46.9 °F 89% 29.99 in 10.0 mi NW 8.1 mph - N/A   Overcast
3:29 AM 48.9 °F 46.9 °F 93% 29.98 in 10.0 mi NW 6.9 mph - N/A   Overcast
3:52 AM 48.9 °F 46.9 °F 93% 29.98 in 10.0 mi NW 5.8 mph - N/A   Overcast
4:04 AM 48.9 °F 46.0 °F 90% 29.98 in 10.0 mi NW 5.8 mph - N/A   Overcast
4:52 AM 50.0 °F 46.0 °F 86% 29.98 in 10.0 mi West 3.5 mph - N/A   Overcast
5:52 AM 50.0 °F 46.0 °F 86% 29.99 in 10.0 mi WNW 6.9 mph - N/A   Overcast
6:52 AM 50.0 °F 46.0 °F 86% 29.99 in 10.0 mi West 5.8 mph - N/A   Overcast
7:52 AM 50.0 °F 46.0 °F 86% 30.02 in 10.0 mi West 9.2 mph - N/A   Overcast
8:52 AM 50.0 °F 46.0 °F 86% 30.04 in 10.0 mi WNW 5.8 mph - N/A   Overcast
9:29 AM 51.1 °F 46.0 °F 83% 30.04 in 10.0 mi WNW 5.8 mph - N/A   Overcast
9:52 AM 51.1 °F 46.0 °F 83% 30.04 in 10.0 mi West 5.8 mph - N/A   Overcast
10:52 AM 54.0 °F 46.9 °F 77% 30.03 in 10.0 mi West 8.1 mph - N/A   Overcast
11:52 AM 57.9 °F 48.9 °F 72% 30.01 in 10.0 mi WSW 5.8 mph - N/A   Mostly Cloudy
12:32 PM 59.0 °F 48.9 °F 69% 29.99 in 10.0 mi NW 5.8 mph - N/A   Scattered Clouds
12:52 PM 61.0 °F 50.0 °F 67% 29.98 in 10.0 mi WNW 5.8 mph - N/A   Clear
1:52 PM 63.0 °F 51.1 °F 65% 29.96 in 10.0 mi Variable 5.8 mph - N/A   Clear
2:52 PM 66.0 °F 51.1 °F 59% 29.95 in 10.0 mi West 9.2 mph - N/A   Clear
3:52 PM 68.0 °F 48.9 °F 50% 29.92 in 10.0 mi NNW 6.9 mph - N/A   Clear
4:52 PM 69.1 °F 45.0 °F 42% 29.90 in 10.0 mi WSW 3.5 mph - N/A   Clear
5:52 PM 69.1 °F 46.0 °F 44% 29.88 in 10.0 mi South 3.5 mph - N/A   Clear
6:52 PM 68.0 °F 48.0 °F 49% 29.87 in 10.0 mi South 3.5 mph - N/A   Clear
7:52 PM 62.1 °F 48.9 °F 62% 29.88 in 10.0 mi South 6.9 mph - N/A   Clear
8:52 PM 57.9 °F 46.9 °F 67% 29.88 in 10.0 mi South 5.8 mph - N/A   Clear
9:52 PM 57.0 °F 46.9 °F 69% 29.88 in 10.0 mi SSE 10.4 mph - N/A   Clear
10:52 PM 57.9 °F 46.9 °F 67% 29.88 in 10.0 mi SSE 11.5 mph - N/A   Clear
11:52 PM 57.9 °F 48.9 °F 72% 29.88 in 10.0 mi SSE 12.7 mph - N/A   Clear